Location: Madden
(51.3728°N, 114.3297°W)
Time: 00:10:41
(UTC+00:00)

RS-44 - Pass Details

Date: 03 December 2023
Orbit: 1175 x 1510 km, 82.5° (Epoch: 26 February)

Event Time Altitude Azimuth Distance (km) Brightness Sun altitude
Rises 04:38:37 0° 350° (N) 4,221 ? -46.3°
Reaches altitude 10° 04:41:38 10° 358° (N) 3,209 ? -46.7°
Enters shadow 04:42:00 12° 359° (N) 3,088 ? -46.8°
